When you browse on this site, cookies collect data to enhance your experience and personalize the content and advertising you see.
Visit our Privacy Policy to learn more. By continuing to use the site, you agree to this use of cookies and data.
EN

Hourly Weather Trinidad

Today, 10 July, Friday

Time Temperature Precipitation Wind Pressure Humidity
00:00 +16°C° 0 mm 1 mps 748 mmHg 81%
01:00 +16°C° 0 mm 1 mps 748 mmHg 81%
02:00 +16°C° 0 mm 1 mps 747 mmHg 82%
03:00 +16°C° 0 mm 1 mps 747 mmHg 83%
04:00 +16°C° 0 mm 1 mps 747 mmHg 84%
05:00 +16°C° 0 mm 1 mps 747 mmHg 84%
06:00 +16°C° 0 mm 1 mps 747 mmHg 83%
07:00 +18°C° 0 mm 1 mps 747 mmHg 82%
08:00 +19°C° 0 mm 1 mps 747 mmHg 80%
09:00 +22°C° 0 mm 1 mps 748 mmHg 72%
10:00 +23°C° 0 mm 0 mps 748 mmHg 63%
11:00 +26°C° 0 mm 0 mps 748 mmHg 55%
12:00 +29°C° 0 mm 1 mps 747 mmHg 53%
13:00 +30°C° 0 mm 1 mps 746 mmHg 52%
14:00 +31°C° 0 mm 1 mps 746 mmHg 50%
15:00 +30°C° 0 mm 1 mps 745 mmHg 54%
16:00 +30°C° 0 mm 1 mps 744 mmHg 57%
17:00 +29°C° 0 mm 1 mps 744 mmHg 61%
18:00 +27°C° 0 mm 1 mps 744 mmHg 67%
19:00 +26°C° 0 mm 1 mps 744 mmHg 73%
20:00 +24°C° 0 mm 1 mps 744 mmHg 79%
21:00 +23°C° 0 mm 1 mps 744 mmHg 80%
22:00 +23°C° 0 mm 1 mps 744 mmHg 81%
23:00 +23°C° 0 mm 1 mps 744 mmHg 82%

Tomorrow, 11 July, Saturday

Time Temperature Precipitation Wind Pressure Humidity
00:00 +23°C° 0 mm 1 mps 744 mmHg 83%
01:00 +22°C° 0 mm 1 mps 744 mmHg 84%
02:00 +22°C° 0 mm 1 mps 743 mmHg 85%
03:00 +22°C° 0 mm 1 mps 743 mmHg 86%
04:00 +22°C° 0 mm 1 mps 743 mmHg 87%
05:00 +21°C° 0 mm 1 mps 743 mmHg 88%
06:00 +22°C° 0 mm 1 mps 744 mmHg 86%
07:00 +23°C° 0 mm 1 mps 744 mmHg 84%
08:00 +23°C° 0 mm 1 mps 745 mmHg 82%
09:00 +26°C° 0 mm 1 mps 745 mmHg 73%
10:00 +28°C° 0 mm 2 mps 745 mmHg 64%
11:00 +31°C° 0 mm 2 mps 745 mmHg 56%
12:00 +32°C° 0 mm 2 mps 745 mmHg 52%
13:00 +34°C° 0 mm 3 mps 744 mmHg 49%
14:00 +35°C° 0 mm 3 mps 743 mmHg 46%
15:00 +34°C° 0 mm 3 mps 743 mmHg 50%
16:00 +32°C° 0 mm 2 mps 743 mmHg 53%
17:00 +31°C° 0 mm 1 mps 742 mmHg 57%
18:00 +30°C° 0 mm 1 mps 742 mmHg 63%
19:00 +28°C° 0 mm 1 mps 742 mmHg 69%
20:00 +26°C° 0 mm 1 mps 742 mmHg 74%
21:00 +26°C° 0 mm 1 mps 743 mmHg 76%
22:00 +25°C° 0 mm 1 mps 743 mmHg 77%
23:00 +25°C° 0 mm 1 mps 743 mmHg 78%

Day after tomorrow, 12 July, Sunday

Time Temperature Precipitation Wind Pressure Humidity
00:00 +25°C° 0 mm 1 mps 743 mmHg 77%
01:00 +25°C° 0 mm 1 mps 743 mmHg 77%
02:00 +24°C° 0 mm 1 mps 743 mmHg 77%
03:00 +24°C° 0 mm 1 mps 742 mmHg 79%
04:00 +24°C° 0 mm 1 mps 742 mmHg 80%
05:00 +23°C° 0 mm 1 mps 742 mmHg 82%
06:00 +24°C° 0 mm 1 mps 743 mmHg 81%
07:00 +24°C° 0 mm 1 mps 743 mmHg 79%
08:00 +25°C° 0 mm 1 mps 744 mmHg 78%
09:00 +27°C° 0 mm 1 mps 744 mmHg 69%
10:00 +30°C° 0 mm 2 mps 744 mmHg 61%
11:00 +32°C° 0 mm 2 mps 745 mmHg 53%
12:00 +34°C° 0 mm 3 mps 744 mmHg 49%
13:00 +35°C° 0 mm 3 mps 743 mmHg 46%
14:00 +36°C° 0 mm 4 mps 743 mmHg 42%
15:00 +35°C° 0 mm 3 mps 742 mmHg 46%
16:00 +35°C° 0 mm 2 mps 742 mmHg 49%
17:00 +33°C° 0 mm 1 mps 742 mmHg 52%
18:00 +31°C° 0 mm 1 mps 742 mmHg 57%
19:00 +29°C° 0 mm 1 mps 742 mmHg 62%
20:00 +27°C° 0 mm 1 mps 742 mmHg 67%
21:00 +27°C° 0 mm 1 mps 742 mmHg 69%
22:00 +26°C° 0 mm 1 mps 743 mmHg 71%
23:00 +26°C° 0 mm 1 mps 743 mmHg 72%

13 July, Monday

Time Temperature Precipitation Wind Pressure Humidity
00:00 +26°C° 0 mm 1 mps 743 mmHg 72%
01:00 +26°C° 0 mm 1 mps 743 mmHg 71%
02:00 +26°C° 0 mm 1 mps 743 mmHg 71%
03:00 +25°C° 0 mm 1 mps 743 mmHg 72%
04:00 +25°C° 0 mm 1 mps 743 mmHg 72%
05:00 +25°C° 0 mm 1 mps 743 mmHg 73%
06:00 +25°C° 0 mm 1 mps 743 mmHg 72%
07:00 +26°C° 0 mm 1 mps 744 mmHg 72%
08:00 +26°C° 0 mm 1 mps 745 mmHg 71%
09:00 +28°C° 0 mm 1 mps 745 mmHg 65%
10:00 +30°C° 0 mm 2 mps 746 mmHg 60%
11:00 +32°C° 0 mm 2 mps 746 mmHg 54%
12:00 +34°C° 0 mm 2 mps 745 mmHg 51%
13:00 +35°C° 0 mm 2 mps 745 mmHg 48%
14:00 +36°C° 0 mm 2 mps 744 mmHg 45%
15:00 +34°C° 0 mm 1 mps 744 mmHg 48%
16:00 +34°C° 0 mm 1 mps 744 mmHg 51%
17:00 +33°C° 0 mm 1 mps 744 mmHg 54%
18:00 +31°C° 0 mm 1 mps 744 mmHg 60%
19:00 +29°C° 0 mm 1 mps 744 mmHg 66%
20:00 +27°C° 0 mm 1 mps 745 mmHg 72%
21:00 +26°C° 0.8 mm 1 mps 745 mmHg 78%
22:00 +25°C° 0.8 mm 2 mps 746 mmHg 84%
23:00 +24°C° 0.8 mm 2 mps 746 mmHg 90%

14 July, Tuesday

Time Temperature Precipitation Wind Pressure Humidity
00:00 +24°C° 0.1 mm 2 mps 746 mmHg 89%
01:00 +24°C° 0.1 mm 3 mps 746 mmHg 89%
02:00 +22°C° 0.1 mm 3 mps 746 mmHg 88%
03:00 +22°C° 0.5 mm 3 mps 746 mmHg 89%
04:00 +21°C° 0.5 mm 3 mps 746 mmHg 91%
05:00 +21°C° 0.5 mm 2 mps 746 mmHg 92%
06:00 +21°C° 0.4 mm 3 mps 747 mmHg 91%
07:00 +21°C° 0.4 mm 3 mps 748 mmHg 90%
08:00 +21°C° 0.4 mm 3 mps 748 mmHg 90%
09:00 +22°C° 0.4 mm 3 mps 749 mmHg 86%
10:00 +24°C° 0.4 mm 3 mps 749 mmHg 82%
11:00 +25°C° 0.4 mm 3 mps 749 mmHg 78%
12:00 +26°C° 0.3 mm 3 mps 749 mmHg 74%
13:00 +27°C° 0.3 mm 3 mps 748 mmHg 69%
14:00 +28°C° 0.3 mm 2 mps 747 mmHg 65%
15:00 +28°C° 0 mm 2 mps 747 mmHg 65%
16:00 +28°C° 0 mm 2 mps 746 mmHg 64%
17:00 +28°C° 0 mm 2 mps 746 mmHg 64%
18:00 +26°C° 0 mm 2 mps 746 mmHg 69%
19:00 +25°C° 0 mm 2 mps 746 mmHg 73%
20:00 +23°C° 0 mm 2 mps 746 mmHg 78%
21:00 +23°C° 0 mm 2 mps 746 mmHg 78%
22:00 +21°C° 0 mm 2 mps 747 mmHg 78%
23:00 +21°C° 0 mm 2 mps 747 mmHg 77%

15 July, Wednesday

Time Temperature Precipitation Wind Pressure Humidity
00:00 +20°C° 0 mm 2 mps 747 mmHg 78%
01:00 +21°C° 0 mm 1 mps 746 mmHg 78%
02:00 +21°C° 0 mm 1 mps 746 mmHg 78%
03:00 +20°C° 0 mm 1 mps 746 mmHg 78%
04:00 +20°C° 0 mm 1 mps 746 mmHg 78%
05:00 +20°C° 0 mm 1 mps 746 mmHg 77%
06:00 +20°C° 0 mm 1 mps 746 mmHg 74%
07:00 +21°C° 0 mm 1 mps 746 mmHg 72%
08:00 +21°C° 0 mm 1 mps 747 mmHg 69%
09:00 +24°C° 0 mm 1 mps 747 mmHg 61%
10:00 +27°C° 0 mm 1 mps 747 mmHg 54%
11:00 +30°C° 0 mm 1 mps 747 mmHg 47%
12:00 +31°C° 0 mm 1 mps 747 mmHg 46%
13:00 +33°C° 0 mm 1 mps 746 mmHg 44%
14:00 +34°C° 0 mm 1 mps 745 mmHg 43%
15:00 +33°C° 0 mm 1 mps 745 mmHg 47%
16:00 +32°C° 0 mm 1 mps 744 mmHg 51%
17:00 +31°C° 0 mm 1 mps 743 mmHg 55%
18:00 +29°C° 0 mm 1 mps 744 mmHg 60%
19:00 +28°C° 0 mm 1 mps 744 mmHg 66%
20:00 +26°C° 0 mm 1 mps 744 mmHg 71%
21:00 +25°C° 0 mm 1 mps 744 mmHg 72%
22:00 +25°C° 0 mm 1 mps 744 mmHg 73%
23:00 +25°C° 0 mm 1 mps 745 mmHg 74%
Show more